Regional Weather Roundup
Issued by NWS

Home | Current Version | Previous Version | Graphics & Text | Print | Product List | Glossary On
Versions: 1 2 3 4 5 6 7 8 9 10 11 12 13 14 15 16 17 18 19 20 21 22 23 24 25 26 27 28 29 30 31 32 33 34 35 36 37 38 39 40 41 42 43 44 45 46 47 48 49 50
000
ASUS43 KFSD 311510
RWRSD

WEATHER ROUNDUP FOR SOUTH DAKOTA
NATIONAL WEATHER SERVICE SIOUX FALLS SD
1000 AM CDT TUE MAY 31 2016

NOTE: "FAIR" INDICATES FEW OR NO CLOUDS BELOW 12,000 FEET WITH NO
SIGNIFICANT WEATHER AND/OR OBSTRUCTIONS TO VISIBILITY.


SDZ001>005-009-010-012>017-311600-
NORTHWEST AND NORTH CENTRAL SOUTH DAKOTA

CITY           SKY/WX    TMP DP  RH WIND       PRES   REMARKS
BUFFALO          N/A     50  42  74 W32G43    29.81F
FAITH            N/A     51  39  63 W36G46    29.90F
MOBRIDGE       PTSUNNY   57  44  62 W15G23    29.82S
$$

SDZ012>016-024>037-041>051-057-063-072>074-311600-
SOUTHWEST AND SOUTH CENTRAL SOUTH DAKOTA

CITY           SKY/WX    TMP DP  RH WIND       PRES   REMARKS
RAPID CTY ARPT SUNNY     60  32  34 W21G32    29.97F
PIERRE         SUNNY     61  42  49 W24       29.90F
CUSTER         SUNNY     49  32  52 W30G44    30.01F
ELLSWORTH AFB  SUNNY     60  34  37 W22G32    29.96F
PHILIP         SUNNY     62  44  51 W20G29    29.93F
PINE RIDGE     SUNNY     58  41  53 W16G23    30.06S
WINNER         FAIR      62  43  49 NW9       29.97S
$$

SDZ004>011-016>023-039-040-311600-
NORTHEAST SOUTH DAKOTA

CITY           SKY/WX    TMP DP  RH WIND       PRES   REMARKS
ABERDEEN       MOSUNNY   61  49  64 W16       29.84S
WATERTOWN      MOSUNNY   60  49  66 W15       29.87R
BROOKINGS      MOSUNNY   61  51  70 W15       29.90R
SISSETON         N/A     64  50  60 NW18G25   29.81R
$$

SDZ017-020-022-023-036>040-048>070-311600-
SOUTHEAST SOUTH DAKOTA

CITY           SKY/WX    TMP DP  RH WIND       PRES   REMARKS
SIOUX FALLS    MOSUNNY   63  53  70 NW15      29.93R
HURON          SUNNY     61  44  53 W16G26    29.90S
CHAMBERLAIN    SUNNY     62  45  54 NW13G20   29.95S
MITCHELL       SUNNY     64  47  53 NW15      29.94S
YANKTON        MOSUNNY   63  52  67 NW16      29.94S
$$

ABBREVIATIONS USED IN REMARKS
   TC - TEMPERATURE IN CELSIUS
  WCI - WIND CHILL INDEX
   HX - HEAT INDEX
  VSB - VISIBILITY





USA.gov is the U.S. government's official web portal to all federal, state and local government web resources and services.